Hourly Data Report for December 27, 2019

EUREKA CLIMATE
NUNAVUT
Current Station Operator: ECCC - MSC

79°59'21.000" N
85°56'02.000" W
10.00 m
2401199
71613
NEK

Download Data

Hourly Data (December 2019)
Hourly Data Report for December 27, 2019
TIME
LST
Temp Definition
°C
Dew Point Definition
°C
Rel Hum Definition
%
Precip. Amount Definition
mm

Wind Dir Definition
10's deg

Wind Spd Definition
km/h
Visibility Definition
km
Stn Press Definition
kPa
Hmdx Definition


Wind Chill Definition


Weather Definition


00:00 -21.7 -23.8 83 0.0 8 5   101.42   -26 LegendNANA
01:00 -20.9 -23.3 81 0.0 14 17   101.33   -31 LegendNANA
02:00 -17.5 -19.8 83 0.0 14 34   101.19   -30 LegendNANA
03:00 -17.9 -20.3 81 0.0 14 23   101.21   -29 LegendNANA
04:00 -17.4 -19.5 84 0.0 13 42   101.13   -31 LegendNANA
05:00 -17.0 -18.9 85 0.0 12 34   101.14   -29 LegendNANA
06:00 -15.8 -17.8 85 0.0 14 38   101.14   -28 LegendNANA
07:00 -16.2 -18.4 84 0.0 14 37   101.14   -29 LegendNANA
08:00 -15.4 -17.6 83 0.0 13 41   101.14   -28 LegendNANA
09:00 -15.5 -17.2 86 0.0 14 41   101.12   -28 LegendNANA
10:00 -15.6 -17.5 86 0.0 13 33   101.11   -27 LegendNANA
11:00 -15.5 -17.0 88 0.0 13 30   101.09   -27 LegendNANA
12:00 -15.4 -17.6 83 0.0 14 33   101.06   -27 LegendNANA
13:00 -15.6 -17.8 84 0.0 14 31   101.03   -27 LegendNANA
14:00 -15.6 -17.9 83 0.0 14 35   100.99   -28 LegendNANA
15:00 -15.4 -17.3 85 0.0 12 31   100.96   -27 LegendNANA
16:00 -15.2 -17.2 84 0.0 13 32   100.90   -27 LegendNANA
17:00 -15.0 -16.6 88 0.0 13 32   100.86   -26 LegendNANA
18:00 -15.2 -16.6 89 0.0 13 37   100.81   -27 LegendNANA
19:00 -15.4 -16.7 90 0.0 13 37   100.68   -28 LegendNANA
20:00 -15.5 -16.9 89 0.0 13 32   100.65   -27 LegendNANA
21:00 -15.5 -16.7 91 0.0 13 39   100.57   -28 LegendNANA
22:00 -15.6 -16.8 90 0.0 13 47   100.46   -29 LegendNANA
23:00 -15.3 -16.5 91 0.0 14 45   100.39   -28 LegendNANA

Notes on Data Quality.

Legend

  • E = Estimated
  • M = Missing
  • NA = Not Available*
  • [empty] = Indicates an unobserved value
Date modified: